www.pogodaiklimat.ru
ПОГОДА в Фунафути
Время
(UTC), дата
12 11.02
15 11.02
18 11.02
21 11.02
00 12.02
03 12.02
06 12.02
09 12.02
12 12.02
15 12.02
18 12.02
21 12.02
00 13.02
03 13.02
06 13.02
09 13.02
12 13.02
15 13.02
21 13.02
00 14.02
03 14.02
06 14.02
09 14.02
12 14.02
15 14.02
18 14.02
21 14.02
00 15.02
06 15.02
09 15.02
12 15.02
15 15.02
18 15.02
21 15.02
00 16.02
03 16.02
06 16.02
09 16.02
12 16.02
15 16.02
18 16.02
21 16.02
00 17.02
03 17.02
06 17.02
12 17.02
15 17.02
18 17.02
21 17.02
00 18.02
03 18.02
06 18.02
09 18.02
Ветер
(напр.,м/с)
Видим. Явления Облачность Т
(С)
Тd
(С)
f
(%)
Тe
(С)
Тes
(С)
Комфортность P
(гПа)
Po
(гПа)
Тmin
(С)
Tmax
(С)
R
(мм)
R24
(мм)
S
(см)
штиль 0 50 км ?/? +28.7 +25.5 83 +42 +42 опасность
перегрева
1009.4 1009.2 +32.2
З 4 4000 м слаб. ливневой дождь 10/10 300 м
[Sc diur, vesp Ac cuf]
+27.7 +25.9 90 +41 +41 опасность
перегрева
1006.3 1006.1
нст 1 10 км осадки на расстоянии {ливн. осадки} 8/8 300 м
[Cb calv Ac cuf Ci fib]
+27.3 +25.9 92 +41 +41 опасность
перегрева
1006.6 1006.4 1
С 4 10 км слаб. ливневой дождь 10/10 300 м
[Sc diur, vesp Ac cuf]
+26.5 +25.8 96 +39 +40 очень
душно
1008.6 1008.4
С 2 20 км 9/9 300 м
[Cb calv Ac cuf Ci fib]
+29.0 +25.9 83 +43 +49 опасность
перегрева
1007.8 1007.6 +25.9 21 24.6
СВ 2 20 км 9/9 300 м
[Cb calv Ac cuf Ci fib]
+30.1 +26.5 81 +46 +49 опасность
перегрева
1005.6 1005.4
З 5 10 км осадки на расстоянии {ливн. осадки} 10/10 300 м
[Sc diur, vesp Ac cuf]
+25.4 +24.3 94 +35 +35 очень
душно
1007.2 1007.0 4
штиль 0 50 км ?/? +25.4 +24.3 94 +35 +35 очень
душно
1007.3 1007.1
В 2 50 км 6/6 300 м
[Cu med, cong Ac cast Ci fib]
+27.3 +24.9 87 +39 +39 очень
душно
1007.5 1007.3 +30.7 7
С 2 20 км 8/0 300 м
[Ac cast Ci fib]
+27.0 +25.0 89 +39 +39 очень
душно
1005.0 1004.8
С 2 50 км н/о +26.9 +24.9 89 +39 +39 очень
душно
1005.5 1005.3
С 2 50 км 8/8 600 м
[Cu med, cong Ac cast]
+29.9 +25.1 75 +43 +47 опасность
перегрева
1006.8 1006.6
С 3 20 км {морось} 8/6 300 м
[Cu med, cong Ac cast]
+30.5 +25.8 76 +45 +53 опасность
перегрева
1005.8 1005.6 +25.1 10.5
С 3 50 км 6/0 300 м
[Ac cast]
+31.5 +26.0 73 +47 +53 опасность
перегрева
1003.4 1003.2
С 3 50 км 6/0 300 м
[Ac cast]
+30.1 +25.2 75 +44 +44 опасность
перегрева
1003.6 1003.4
С 2 50 км 5/0 300 м
[Ac cast]
+28.8 +25.7 83 +43 +43 опасность
перегрева
1005.1 1004.9
З 2 50 км 4/4 300 м
[Cu med, cong Ac cast]
+28.5 +25.3 83 +42 +42 опасность
перегрева
1004.6 1004.4 +31.7
штиль 0 50 км 4/0 300 м
[Ac cast Ci fib]
+27.5 +25.5 89 +40 +40 очень
душно
1003.0 1002.8
нст 1 50 км 8/8 300 м
[Cu med, cong Ac cast]
+29.1 +25.7 82 +43 +49 опасность
перегрева
1004.5 1004.3
СВ 2 50 км {ливн. осадки} 8/8 300 м
[Cb calv Ac cuf Ci fib]
+31.5 +26.7 76 +49 +56 опасность
перегрева
1003.1 1002.9 +26.5 5.5
С 3 50 км 8/8 300 м
[Cb calv Ac cuf Ci fib]
+32.2 +26.1 70 +48 +51 опасность
перегрева
1000.8 1000.6
СЗ 2 50 км 8/0 300 м
[Ac cast]
+30.5 +25.2 73 +44 +44 опасность
перегрева
1001.5 1001.3
С 2 50 км 6/0 600 м
[Ac cast]
+29.0 +25.6 82 +43 +43 опасность
перегрева
1003.1 1002.9
нст 1 50 км 4/0 300 м
[Ac cast]
+28.5 +26.4 88 +43 +43 опасность
перегрева
1002.3 1002.1 +32.0
СЗ 2 50 км 4/4 300 м
[Cu Sc As trans Cs]
+28.1 +25.7 87 +42 +42 опасность
перегрева
1000.1 999.9
СЗ 3 20 км осадки на расстоянии 8/8 300 м
[Cb calv Ac cuf Ci fib]
+28.5 +25.7 85 +42 +42 опасность
перегрева
1001.1 1000.9 3
СЗ 3 10 км слаб. ливневой дождь 9/9 300 м
[Cb calv Ac cuf Ci fib]
+29.4 +26.2 83 +45 +47 опасность
перегрева
1009.5 1009.3
СЗ 4 50 км {ливн. осадки} 8/8 300 м
[Cu med, cong Ac cast]
+31.1 +26.0 74 +46 +53 опасность
перегрева
1001.5 1001.3 +27.2 0.0 2.8
СЗ 4 50 км {ливн. осадки} 10/10 300 м
[Cu med, cong Ac cast]
+30.0 +26.0 79 +45 +45 опасность
перегрева
1000.1 999.9 0.2
З 4 10 км слаб. ливневой дождь 10/10 300 м
[Sc diur, vesp Ac cuf]
+26.5 +25.8 96 +39 +39 очень
душно
1001.7 1001.5
СЗ 5 10 км осадки на расстоянии {ливн. осадки} 10/10 300 м
[Sc diur, vesp Ac cuf]
+28.0 +25.8 88 +42 +42 опасность
перегрева
1001.6 1001.4 +31.7 33
СЗ 7 20 км осадки на расстоянии 10/10 300 м
[Sc diur, vesp Ac cuf]
+27.5 +25.7 90 +41 +41 опасность
перегрева
1099.9 1099.6
СЗ 8 10 км слаб. ливневой дождь 10/10 300 м
[Sc diur, vesp Ac cuf]
+27.4 +25.3 88 +40 +40 очень
душно
1000.6 1000.4 1
З 7 4000 м ливневой дождь 10/5 300 м
[St]
+26.5 +24.9 91 +38 +38 очень
душно
1002.0 1001.8
З 9 4000 м мгла {дождь} 10/5 300 м
[Cb calv As op]
+26.8 +25.1 90 +39 +39 очень
душно
1002.1 1001.9 +25.0 21 55.3
З 9 4000 м слаб. ливневой дождь 10/10 300 м
[Sc diur, vesp Ac cuf]
+27.0 +25.6 92 +40 +40 очень
душно
999.9 999.7
СЗ 9 4000 м слаб. ливневой дождь 10/10 300 м
[Sc diur, vesp Ac cuf]
+26.9 +25.5 92 +39 +39 очень
душно
1001.0 1000.8 12
штиль 0 50 км слаб. ливневой дождь ?/? +27.9 +25.7 88 +41 +41 опасность
перегрева
1002.6 1002.4
штиль 0 50 км слаб. ливневой дождь ?/? +26.9 +25.1 90 +39 +39 очень
душно
1003.7 1003.5 +28.4 5
СЗ 10 10 км слаб. ливневой дождь 10/10 300 м
[Sc diur, vesp Ac cuf]
+26.0 +24.1 89 +36 +36 очень
душно
1000.5 1000.3
З 18 4000 м сильн. дождь {ливн. осадки} 10/8 420 м
[Cb cap Ac As]
+26.0 +25.3 96 +38 +38 очень
душно
1002.1 1001.9 17
З 15 1000 м дождь 10/10 300 м
[Sc Ac cuf]
+25.4 +25.1 98 +36 +36 очень
душно
1004.8 1004.6
З 4 20 км пыльный позёмок 10/10 300 м
[Sc diur, vesp Ac cuf]
+26.5 +24.4 88 +37 +38 очень
душно
1003.3 1003.1 +24.9 51 75.5
З 12 10 км слаб. ливневой дождь 10/6 450 м
[Cb calv As op]
+26.5 +24.4 88 +37 +37 очень
душно
1001.9 1001.7
З 11 4000 м слаб. ливневой дождь 10/5 450 м
[Cb calv As op]
+28.1 +25.1 84 +41 +41 опасность
перегрева
1001.8 1001.6 6
СЗ 11 4000 м слаб. ливневой дождь 10/10 300 м
[Sc diur, vesp Ac cuf]
+27.1 +25.4 90 +39 +39 очень
душно
1003.4 1003.2 +24.9 12
СЗ 9 10 км осадки на расстоянии {ливн. осадки} 10/10 300 м
[Sc diur, vesp Ac cuf]
+28.0 +25.5 86 +41 +41 опасность
перегрева
1001.9 1001.7
СЗ 11 10 км осадки на расстоянии {ливн. осадки} 10/10 300 м
[Sc diur, vesp Ac cuf]
+28.0 +24.6 82 +40 +40 очень
душно
1002.3 1002.1 42
СЗ 9 20 км {ливн. осадки} 10/5 540 м
[Cu med, cong Ac As]
+28.7 +25.0 80 +41 +41 опасность
перегрева
1003.6 1003.4
СЗ 8 10 км {дождь} 10/10 300 м
[Sc diur, vesp Ac cuf]
+28.6 +24.9 80 +41 +42 опасность
перегрева
1002.7 1002.5 +24.6 0.7 22.6
СЗ 9 4000 м дождь {ливн. осадки} 10/10 300 м
[Sc diur, vesp Ac cuf]
+26.7 +25.7 94 +39 +40 очень
душно
1002.0 1001.8
З 7 20 км слаб. ливневой дождь 10/10 300 м
[Sc diur, vesp Ac cuf]
+25.2 +25.0 99 +36 +36 очень
душно
1002.8 1002.6 100
З 9 20 км слаб. ливневой дождь 10/4 450 м
[Cb calv As op]
+26.2 +25.5 96 +38 +38 очень
душно
1004.4 1004.2
Местоположение метеостанции Фунафути (Тувалу): широта -8.53 долгота 179.21 высота над уровнем моря 2 м.
В архиве по умолчанию представлена погода в Фунафути за последнюю неделю. Архивные данные за месяц целиком и за предыдущие месяцы, начиная с января 2011 года, Вы можете получить, выбрав интересующий диапазон дат из раскрывающегося списка и нажав кнопку "Найти!".
*Определитесь, кто Вы:
Внимание! Время в таблицах - всемирное. Для получения местного времени необходимо прибавить поправку, которая равна 12 ч.
Смотрите также архив погоды в соседних городах и на ближайших метеорологических станциях:
Партнеры нашего сайта:      
Пояснения к столбцам:
  • Ветер - указаны скорость ветра в м/с - средняя за 10 мин, порывы в срок и между сроками (в фигурных скобках) и направление, откуда дует ветер: С - северный,
  • СВ - северо-восточный, В - восточный, ЮВ - юго-восточный, Ю - южный, ЮЗ - юго-западный, З - западный, СЗ - северо-западный.
  • Видимость - горизонтальная дальность видимости в метрах или километрах. При видимости от 1 до 10 км при отсутствии осадков обычно наблюдается дымка, при ухудшении видимости до 1 км и менее - туман. В сухую погоду видимость может ухудшаться дымом, пылью или мглою.
  • Явления - указаны атмосферные явления, наблюдавшиеся в срок или в последний час перед сроком; фигурными скобками обозначены явления, наблюдавшиеся между сроками (за 1-3 часа до срока); квадратными скобками обозначены град или гололедные отложения с указанием их диаметра в мм.
  • Облачность - указаны через наклонную черту общая и нижняя облачность в баллах и высота нижней границы облаков в метрах; квадратными скобками обозначены формы облаков: Ci - перистые, Cs - перисто-слоистые, Cc - перисто-кучевые, Ac - высококучевые, As - высокослоистые, Sc - слоисто-кучевые, Ns - слоисто-дождевые, Cu - кучевые, Cb - кучево-дождевые. Подробнее классификацию облаков см. в Атласе облаков (PDF).
  • T - Температура воздуха - температура, измеренная на высоте 2 м над землей.
  • Td - Температура точки росы - температура, при понижении до которой содержащийся в воздухе водяной пар достигнет насыщения.
  • f - Относительная влажность воздуха - влажноcть воздуха, измеренная на высоте 2 м над землей.
  • Te - Эффективная температура - температура, которую ощущает одетый по сезону человек в тени. Характеристика душности погоды. При расчете учитывается влияние влажности воздуха и скорости ветра на теплоощущения человека.
  • Tes - Эффективная температура на солнце - температура, которую ощущает человек, с поправкой на солнечный нагрев. Характеристика знойности погоды. Зависит от высоты солнца над горизонтом, облачности и скорости ветра. Ночью, в пасмурную погоду, а также при ветре 12 м/с и более поправка равна нулю.
  • P - Атмосферное давление - приведенное к уровню моря атмосферное давление.
  • Po - Атмосферное давление - измеренное на уровне метеостанции атмосферное давление.
  • Tmin - Минимальная температура - минимум температуры воздуха на высоте 2 м над землей.
  • Tmax - Максимальная температура - максимум температуры воздуха на высоте 2 м над землей.
  • R - Количество осадков - Количество выпавших осадков за период времени, мм. При наведении курсора мыши на число - период времени, за который выпало указанное количество осадков.
  • R24 - Количество осадков - Количество выпавших осадков за 24 часа, мм.
  • S - Снежный покров - Высота снежного покрова, см. При наведении курсора мыши на число - состояние снежного покрова и степень покрытия местности в баллах.